Time,TemperatureF,DewpointF,PressureIn,WindDirection,WindDirectionDegrees,WindSpeedMPH,WindSpeedGustMPH,Humidity,HourlyPrecipIn,Conditions,Clouds,dailyrainin,SoftwareType,DateUTC
2014-01-21 00:00:00,38.3,28.0,30.22,NNE,22,0.0,3.0,66,0.00,,---,0.00,VWS V14.01,2014-01-21 08:00:00,
2014-01-21 01:00:00,36.9,27.3,30.21,NNE,22,0.0,2.0,68,0.00,,---,0.00,VWS V14.01,2014-01-21 09:00:00,
2014-01-21 02:00:00,36.6,27.4,30.21,NNE,22,0.0,2.0,69,0.00,,---,0.00,VWS V14.01,2014-01-21 10:00:00,
2014-01-21 03:00:00,35.0,26.6,30.23,NNE,22,0.0,3.0,71,0.00,,---,0.00,VWS V14.01,2014-01-21 11:00:00,
2014-01-21 04:00:00,34.3,26.2,30.23,NNE,22,0.0,2.0,72,0.00,,---,0.00,VWS V14.01,2014-01-21 12:00:00,
2014-01-21 05:00:00,34.7,26.3,30.22,NNE,22,0.0,3.0,71,0.00,,---,0.00,VWS V14.01,2014-01-21 13:00:00,
2014-01-21 06:00:00,33.7,25.6,30.23,NNE,22,1.0,3.0,72,0.00,,---,0.00,VWS V14.01,2014-01-21 14:00:00,
2014-01-21 07:00:00,33.7,25.3,30.24,NNE,22,1.0,4.0,71,0.00,,---,0.00,VWS V14.01,2014-01-21 15:00:00,
2014-01-21 08:00:00,34.2,26.1,30.25,NE,45,0.0,3.0,72,0.00,,---,0.00,VWS V14.01,2014-01-21 16:00:00,
2014-01-21 09:00:00,46.0,35.3,30.25,NE,45,0.0,3.0,66,0.00,,---,0.00,VWS V14.01,2014-01-21 17:00:00,
2014-01-21 10:00:00,58.1,33.3,30.25,SSE,158,0.0,2.0,39,0.00,,---,0.00,VWS V14.01,2014-01-21 18:00:00,
2014-01-21 11:00:00,63.2,27.8,30.24,SSW,202,1.0,5.0,26,0.00,,---,0.00,VWS V14.01,2014-01-21 19:00:00,
2014-01-21 12:00:00,66.2,28.4,30.22,SW,225,2.0,6.0,24,0.00,,---,0.00,VWS V14.01,2014-01-21 20:00:00,
2014-01-21 13:00:00,70.0,27.1,30.18,South,180,2.0,7.0,20,0.00,,---,0.00,VWS V14.01,2014-01-21 21:00:00,
2014-01-21 14:00:00,73.4,26.0,30.15,WSW,248,2.0,6.0,17,0.00,,---,0.00,VWS V14.01,2014-01-21 22:00:00,
2014-01-21 15:00:00,73.3,27.3,30.13,SSE,158,2.0,7.0,18,0.00,,---,0.00,VWS V14.01,2014-01-21 23:00:00,
2014-01-21 16:00:00,73.0,25.6,30.13,WSW,248,2.0,8.0,17,0.00,,---,0.00,VWS V14.01,2014-01-22 00:00:00,
2014-01-21 17:00:00,65.0,29.3,30.13,SW,225,0.0,2.0,26,0.00,,---,0.00,VWS V14.01,2014-01-22 01:00:00,
2014-01-21 18:00:00,49.8,29.3,30.14,NE,45,0.0,3.0,45,0.00,,---,0.00,VWS V14.01,2014-01-22 02:00:00,
2014-01-21 19:00:00,45.5,28.4,30.15,NE,45,0.0,3.0,51,0.00,,---,0.00,VWS V14.01,2014-01-22 03:00:00,
2014-01-21 20:00:00,42.8,27.8,30.15,North,0,0.0,3.0,55,0.00,,---,0.00,VWS V14.01,2014-01-22 04:00:00,
2014-01-21 21:00:00,41.1,27.9,30.14,NNE,22,0.0,3.0,59,0.00,,---,0.00,VWS V14.01,2014-01-22 05:00:00,
2014-01-21 22:00:00,40.4,28.0,30.14,NNE,22,0.0,4.0,61,0.00,,---,0.00,VWS V14.01,2014-01-22 06:00:00,
2014-01-21 23:00:00,40.8,28.0,30.15,NNE,22,0.0,3.0,60,0.00,,---,0.00,VWS V14.01,2014-01-22 07:00:00,